Tracking 20626 objects as of 8-Apr-2020
HD Live streaming from Space Station
objects crossing your sky now

SL-6 DEB

Track SL-6 DEB now!
10-day predictions


NORAD ID: 18598
Int'l Code: 1981-088N
Perigee: 295.9 km
Apogee: 13,281.2 km
Inclination: 62.9 °
Period: 250.4 minutes
Semi major axis: 13159 km
RCS: 0.1262 m2 (medium)
Launch date: September 11, 1981
Source: Commonwealth of Independent States (former USSR) (CIS)
Launch site: PLESETSK MISSILE AND SPACE COMPLEX (PKMTR)

Note: This is SATELLITE DEBRIS
aabbcc
Your satellite tracking list
Your tracking list is empty




NASA's NSSDC Master Catalog

Two Line Element Set (TLE):
1 18598U 81088N   20099.37796186 +.00002205 +00000-0 +26211-3 0  9997
2 18598 062.9096 094.8190 4933781 242.6246 059.3686 05.75098196786320
Source of the keplerian elements: AFSPC